Regional Weather Roundup
Issued by NWS

Home | Current Version | Previous Version | Graphics & Text | Print | Product List | Glossary On
Versions: 1 2 3 4 5 6 7 8 9 10 11 12 13 14 15 16 17 18 19 20 21 22 23 24 25 26 27 28 29 30 31 32 33 34 35 36 37 38 39 40 41 42 43 44 45 46 47 48 49 50
000
ASUS43 KLMK 191810
RWRKY
KENTUCKY REGIONAL WEATHER ROUNDUP
NATIONAL WEATHER SERVICE LOUISVILLE KY
200 PM EDT SAT AUG 19 2017

NOTE "FAIR" INDICATES FEW OR NO CLOUDS BELOW 12,000 FEET
WITH NO SIGNIFICANT WEATHER AND/OR OBSTRUCTIONS TO VISIBILITY.

KYZ001>023-026-027-061>063-070>075-191900-
WESTERN AND SOUTH CENTRAL KENTUCKY

CITY           SKY/WX    TMP DP  RH WIND       PRES   REMARKS
PADUCAH        MOSUNNY   90  71  53 NW6       29.95F HX  96
HENDERSON      SUNNY     83  70  64 SW7       29.97S
OWENSBORO      SUNNY     85  68  56 S7        29.96F
HOPKINSVILLE   MOSUNNY   88  72  58 CALM      29.97F HX  94
BOWLING GREEN  SUNNY     86  67  52 S9        29.99F
GLASGOW        MOSUNNY   87  66  50 S6        29.99F
$$

KYZ024-025-028>034-038-045-046-053-191900-
NORTH CENTRAL KENTUCKY

CITY           SKY/WX    TMP DP  RH WIND       PRES   REMARKS
LOUISVILLE/SDF MOSUNNY   88  69  53 SW10G16   29.96S HX  92
LOUISVILLE/LOU MOSUNNY   85  69  58 SW8       29.96F
FORT KNOX      MOSUNNY   87  68  53 S7        29.96F HX  90
$$

KYZ035>037-039>044-047>052-055>060-089>105-191900-
NORTHEAST KENTUCKY

CITY           SKY/WX    TMP DP  RH WIND       PRES   REMARKS
LEXINGTON      CLOUDY    83  66  56 SW8       30.00F
COVINGTON      PTSUNNY   83  69  62 SW5       29.96F
FRANKFORT      MOSUNNY   84  65  52 S9        29.97F
$$

KYZ054-064>069-076>088-106>120-191900-
SOUTHEAST KENTUCKY

CITY           SKY/WX    TMP DP  RH WIND       PRES   REMARKS
JACKSON        PTSUNNY   81  67  62 CALM      30.03F
LONDON         MOSUNNY   83  65  54 SW7       30.03F
SOMERSET       CLOUDY    81  63  54 S6        30.03F
MIDDLESBORO    MOSUNNY   85  67  54 E5        30.03F
MONTICELLO     CLEAR     85  68  56 W9G16     30.04F
$$




USA.gov is the U.S. government's official web portal to all federal, state and local government web resources and services.